sat.trackr.live / text

‹ back to catalog

UNKNOWN

NORAD 81052

UNKNOWN UNKNOWN UNKNOWN

§ Identity

Operator
Country
Launch date
Launch site
Launch vehicle
Mass (kg)
RCS (m²)

External: N2YO · Heavens-Above

§ Orbital elements

Epoch: 2026-05-23T22:46:13.668384Z

Period
103.99 min
Inclination
65.7710°
Eccentricity
0.0557298
Mean motion
13.84810584 rev/d
Perigee alt
538.7 km
Apogee alt
1,355.1 km
Semi-major
7,325.0 km
B*
6.5759e-4
RAAN
338.8625°
Arg perigee
229.6964°
Mean anomaly
125.4133°
Rev number
62,276

§ Raw data

UNKNOWN1 81052U          26143.94876931  .00002441  00000+0  65759-3 0  99942 81052  65.7710 338.8625 0557298 229.6964 125.4133 13.84810584622767

JSON: /api/v1/satellites/81052 · /tle

For live sub-satellite position, see the globe view (requires WebGL).

§ Visibility from observer

Set your observer location to see the next 7 days of passes ≥ 10°. The values pass through the URL so the page stays shareable.

No JS? Fill the form by hand. The geolocation button needs JavaScript.